WESTFORD NEEDLES, 2364

Orbit data source: Space-Track

WESTFORD NEEDLES, 2364 is space debris in LEO originally from a launch on Thu, 09 May 1963 UTC launched from the Air Force Western Test Range (AFWTR). Debris objects in space refer to the collection of defunct objects orbiting the Earth. Examples of debris include non-operational satellites, rocket bodies, and fragments generated from explosions, collisions, or faulty payload assembly.

Loading next visibility...
Identifier
2364, 1963-014P
Orbit
LEO
Country
Flag of USUS
Related business
Manufacturer
Unknown
Mission
Spacecraft
Bus & Motor
Unknown
Mass
Unknown
Launch date (UTC)
1963-05-09 (63 years ago)
Launch vehicle
Unknown
Launch site
Air Force Western Test Range (AFWTR)
Object type
Payload
Rocket body
Debris
Shape & HBR
Unknown shape, 0.4 m
Radar Cross Section
Medium (>0.1 m² and <1 m²)

Expand to show TLE details & history
Last TLE update: 1 day ago

TLE from 1 day ago
0 WESTFORD NEEDLES
1 02364U 63014P   26014.15784286 -.00000602  00000-0 -22930+0 0  9998
2 02364  87.5656 295.5419 0616463 199.5028 158.1257  8.67354717982612
Epoch: 2026-01-14T03:47Z
TLE epoch observation values (Epoch: 2026-01-14T03:47:17.623Z)
Latitude
0.00004°
Longitude
125.08862°
Altitude
4,207.647 km
Speed
5.957 km/s
True Right ascension
19h 42m 10s
True Declination
0° 00' 00"
Sunlit
Object was in daylight at epoch
Visualization orbit readout
Latitude
Unknown
Longitude
Unknown
Altitude
Unknown
Speed
Unknown
Apparent Right ascension
Unknown
Apparent Declination
Unknown
Sunlit
N/A
Visualization observer readout
Local Sidereal Time
13:12:06
Azimuth
Unknown
Elevation
Unknown
Doppler factor
Unknown
Orbital elements
Apogee altitude
4,242.615 km
Perigee altitude
3,009.191 km
Semi-major axis
10,004.04 km
Eccentricity
0.06165
Inclination
87.5656°
RAAN
295.5419°
Arg. of periapsis
199.5028°
True anomaly
160.58079°
Mean anomaly
158.1257°
Eccentric anomaly
159.37015°
Mean motion
2.1691 °/min
Orbital period
165.97 mins
BSTAR
-0.2293

Documentation

Showing up to 5 results
|